Regional Weather Roundup
Issued by NWS

Home | Current Version | Previous Version | Text Only | Print | Product List | Glossary Off
Versions: 1 2 3 4 5 6 7 8 9 10 11 12 13 14 15 16 17 18 19 20 21 22 23 24 25 26 27 28 29 30 31 32 33 34 35 36 37 38 39 40 41 42 43 44 45 46 47 48 49 50

108
ASUS43 KIND 250909
RWRIN

WEATHER ROUNDUP FOR INDIANA
NATIONAL WEATHER SERVICE INDIANAPOLIS IN
500 AM EDT MON JUL 25 2016

NOTE: "FAIR" INDICATES FEW OR NO CLOUDS BELOW 12,000 FEET WITH NO
SIGNIFICANT WEATHER AND/OR OBSTRUCTIONS TO VISIBILITY.

* - STATION DOES NOT REPORT WEATHER SUCH AS PRECIPITATION OR FOG.

+ - STATION NOT QUALITY CONTROLLED BY THE NATIONAL WEATHER SERVICE.
    USE DATA WITH CAUTION...ESPECIALLY DEWPOINT AND RELATIVE
    HUMIDITY OBSERVATIONS.

INZ001>003-010>013-019-020-251000-
NORTHWEST INDIANA

CITY           SKY/WX    TMP DP  RH WIND       PRES   REMARKS
GARY /AIRPORT/ CLOUDY    74  73  96 W8        29.96R
KNOX *+        MOCLDY    68  64  88 W5        29.94S
LA PORTE +     CLOUDY    71  71 100 NW6       29.95F
MICHIGAN CITY+ CLOUDY    72  68  88 SW7       29.94S
MONTICELLO +   CLOUDY    70  64  82 S8        29.90F
RENSSELAER +   CLOUDY    70  68  94 W10G17    29.94F
VALPARAISO     CLOUDY    70  67  90 W12       29.95F

$$

LMZ046-743>745-251000-
SOUTHERN LAKE MICHIGAN

STATION/POSITION TIME  TEMP    WIND        PRES    WAVE
                       AIR SEA DIR/SP/G            HT
                 (UTC) (F)     (DEG/KT/KT) (MB)    (FT)
BURNS HARBOR     0801   73     250/ 10/ 20 1014.9R
MICHIGAN CITY    0800   74     230/ 21/ 23   N/A
5NW MICH CITY    0900   74 74  270/ 16/ 19   N/A     3

$$

INZ004-005-014>016-021>024-251000-
NORTH CENTRAL INDIANA

CITY           SKY/WX    TMP DP  RH WIND       PRES   REMARKS
GOSHEN         CLOUDY    71  67  87 CALM      29.92F
LOGANSPORT +   CLOUDY    68  68 100 S7        29.92F
PERU/GRISSOM   CLOUDY    69  68  96 SW6       29.91F
ROCHESTER +    CLOUDY    72  70  94 N6        29.93F
SOUTH BEND     CLOUDY    70  67  90 NW9       29.95R
WARSAW +       CLOUDY    70  68  94 CALM      29.93R

$$

INZ006>009-017-018-025>027-251000-
NORTHEAST INDIANA

CITY           SKY/WX    TMP DP  RH WIND       PRES   REMARKS
ANGOLA *+      CLEAR     73  64  73 VRB6      29.94R
AUBURN +       CLOUDY    72  64  78 CALM      29.95R
FORT WAYNE     CLOUDY    71  67  87 S6        29.94S
HUNTINGTON +   CLOUDY   N/A N/A N/A SW3       29.93F

$$

INZ028-029-035-036-043>045-051>053-251000-
WEST CENTRAL INDIANA

CITY           SKY/WX    TMP DP  RH WIND       PRES   REMARKS
CRAWFORDSVL +  CLOUDY    68  68 100 S3        29.97F
GREENCASTLE +  CLOUDY    70  70 100 CALM      29.99F
LAFAYETTE      CLOUDY    70  70 100 VRB3      29.91F
TERRE HAUTE    CLOUDY    71  67  87 CALM      29.98F

$$

INZ030>032-037>040-046>048-054>057-064-065-251000-
CENTRAL INDIANA

CITY           SKY/WX    TMP DP  RH WIND       PRES   REMARKS
FRANKFORT +    CLOUDY   N/A N/A N/A SW6       29.96F
INDIANAPOLIS   CLOUDY    73  67  81 SW5       29.98F
-EAGLE CREEK   CLOUDY    74  67  78 CALM      29.97F
KOKOMO *+      CLOUDY    72  63  73 S8        29.93F
MARION +       CLOUDY    69  66  90 SW5       29.96F
MT COMFORT *+  CLOUDY    72  68  88 CALM      29.99F
SHELBYVILLE    CLOUDY    78  73  84 W3        29.97F
ZIONSVILLE +   CLOUDY    69  67  91 SW5       29.97F

$$

INZ033-034-041-042-049-050-058-059-251000-
EAST CENTRAL INDIANA

CITY           SKY/WX    TMP DP  RH WIND       PRES   REMARKS
MUNCIE         MOCLDY    75  66  73 SW7       29.97S

$$

INZ060-061-067>069-081>083-085>088-251000-
SOUTHWEST INDIANA

CITY           SKY/WX    TMP DP  RH WIND       PRES   REMARKS
EVANSVILLE     CLOUDY    79  75  87 N7        30.00S
HUNTINGBURG *+ CLOUDY    77  73  88 N5        30.00S
WASHINGTON +   PTCLDY    72  72 100 MISG      30.00S

$$

INZ062-063-066-070>080-084-089>092-251000-
SOUTH CENTRAL AND SOUTHEAST INDIANA

CITY           SKY/WX    TMP DP  RH WIND       PRES   REMARKS
BLOOMINGTON    MOCLDY    74  70  87 CALM      29.99F
MADISON *+     CLOUDY    77  73  88 CALM      30.03S
NORTH VERNON + PTCLDY   N/A N/A N/A CALM      30.00F

$$





USA.gov is the U.S. government's official web portal to all federal, state and local government web resources and services.